Tracking 29091 objects as of 17-Jul-2024
HD Live streaming from Space Station
objects crossing your sky now

LAYAN-23

Track LAYAN-23 now!
10-day predictions


NORAD ID: 56939
Int'l Code: 2023-084H
Perigee: 481.6 km
Apogee: 489.2 km
Inclination: 97.5 °
Period: 94.2 minutes
Semi major axis: 6856 km
RCS: Unknown
Launch date: June 12, 2023
Source: Republic of Rwanda (RWA)
Launch site: AIR FORCE WESTERN TEST RANGE (AFWTR)
Your satellite tracking list
Your tracking list is empty




NASA's NSSDC Master Catalog

Two Line Element Set (TLE):
1 56939U 23084H   24199.46122869  .00038187  00000-0  13453-2 0  9997
2 56939  97.5392 319.6782 0005517 258.3284 101.7336 15.29179985 60839
Source of the keplerian elements: AFSPC